Year,Month,Day,Hour,Minute,Value (Times are PST for temperature in C)
2011,05,01,00,00,6.60
2011,05,01,00,01,6.60
2011,05,01,00,02,6.50
2011,05,01,00,03,6.60
2011,05,01,00,04,6.60
2011,05,01,00,05,6.60
2011,05,01,00,06,6.60
2011,05,01,00,07,6.60
2011,05,01,00,08,6.50
2011,05,01,00,09,6.50
2011,05,01,00,10,6.50
2011,05,01,00,11,6.40
2011,05,01,00,12,6.40
2011,05,01,00,13,6.40
2011,05,01,00,14,6.40
2011,05,01,00,15,6.30
2011,05,01,00,16,6.30
2011,05,01,00,17,6.30
2011,05,01,00,18,6.30
2011,05,01,00,19,6.30
2011,05,01,00,20,6.30
2011,05,01,00,21,6.30
2011,05,01,00,22,6.30
2011,05,01,00,23,6.30
2011,05,01,00,24,6.30
2011,05,01,00,25,6.20
2011,05,01,00,26,6.20
2011,05,01,00,27,6.20
2011,05,01,00,28,6.20
2011,05,01,00,29,6.20
2011,05,01,00,30,6.20
2011,05,01,00,31,6.20
2011,05,01,00,32,6.30
2011,05,01,00,33,6.30
2011,05,01,00,34,6.30
2011,05,01,00,35,6.30
2011,05,01,00,36,6.30
2011,05,01,00,37,6.30
2011,05,01,00,38,6.30
2011,05,01,00,39,6.30
2011,05,01,00,40,6.30
2011,05,01,00,41,6.30
2011,05,01,00,42,6.30
2011,05,01,00,43,6.20
2011,05,01,00,44,6.20
2011,05,01,00,45,6.20
2011,05,01,00,46,6.20
2011,05,01,00,47,6.20
2011,05,01,00,48,6.20
2011,05,01,00,49,6.20
2011,05,01,00,50,6.20
2011,05,01,00,51,6.20
2011,05,01,00,52,6.30
2011,05,01,00,53,6.30
2011,05,01,00,54,6.30
2011,05,01,00,55,6.30
2011,05,01,00,56,6.30
2011,05,01,00,57,6.30
2011,05,01,00,58,6.30
2011,05,01,00,59,6.30
2011,05,01,01,00,6.30
2011,05,01,01,01,6.30
2011,05,01,01,02,6.30
2011,05,01,01,03,6.30
2011,05,01,01,04,6.30
2011,05,01,01,05,6.30
2011,05,01,01,06,6.30
2011,05,01,01,07,6.30
2011,05,01,01,08,6.20
2011,05,01,01,09,6.20
2011,05,01,01,10,6.20
2011,05,01,01,11,6.20
2011,05,01,01,12,6.10
2011,05,01,01,13,6.10
2011,05,01,01,14,6.10
2011,05,01,01,15,6.00
2011,05,01,01,16,6.00
2011,05,01,01,17,5.90
2011,05,01,01,18,5.90
2011,05,01,01,19,5.90
2011,05,01,01,20,5.80
2011,05,01,01,21,5.80
2011,05,01,01,22,5.80
2011,05,01,01,23,5.70
2011,05,01,01,24,5.70
2011,05,01,01,25,5.70
2011,05,01,01,26,5.60
2011,05,01,01,27,5.60
2011,05,01,01,28,5.60
2011,05,01,01,29,5.50
2011,05,01,01,30,5.50
2011,05,01,01,31,5.50
2011,05,01,01,32,5.40
2011,05,01,01,33,5.40
2011,05,01,01,34,5.40
2011,05,01,01,35,5.30
2011,05,01,01,36,5.30
2011,05,01,01,37,5.30
2011,05,01,01,38,5.30
2011,05,01,01,39,5.30
2011,05,01,01,40,5.20
2011,05,01,01,41,5.20
2011,05,01,01,42,5.20
2011,05,01,01,43,5.20
2011,05,01,01,44,5.20
2011,05,01,01,45,5.20
2011,05,01,01,46,5.20
2011,05,01,01,47,5.20
2011,05,01,01,48,5.30
2011,05,01,01,49,5.30
2011,05,01,01,50,5.30
2011,05,01,01,51,5.30
2011,05,01,01,52,5.30
2011,05,01,01,53,5.30
2011,05,01,01,54,5.40
2011,05,01,01,55,5.40
2011,05,01,01,56,5.40
2011,05,01,01,57,5.40
2011,05,01,01,58,5.40
2011,05,01,01,59,5.40
2011,05,01,02,00,5.50
2011,05,01,02,01,5.50
2011,05,01,02,02,5.60
2011,05,01,02,03,5.60
2011,05,01,02,04,5.60
2011,05,01,02,05,5.60
2011,05,01,02,06,5.60
2011,05,01,02,07,5.60
2011,05,01,02,08,5.60
2011,05,01,02,09,5.60
2011,05,01,02,10,5.60
2011,05,01,02,11,5.70
2011,05,01,02,12,5.70
2011,05,01,02,13,5.70
2011,05,01,02,14,5.70
2011,05,01,02,15,5.60
2011,05,01,02,16,5.60
2011,05,01,02,17,5.60
2011,05,01,02,18,5.60
2011,05,01,02,19,5.60
2011,05,01,02,20,5.60
2011,05,01,02,21,5.60
2011,05,01,02,22,5.60
2011,05,01,02,23,5.70
2011,05,01,02,24,5.70
2011,05,01,02,25,5.70
2011,05,01,02,26,5.70
2011,05,01,02,27,5.70
2011,05,01,02,28,5.70
2011,05,01,02,29,5.60
2011,05,01,02,30,5.70
2011,05,01,02,31,5.60
2011,05,01,02,32,5.60
2011,05,01,02,33,5.70
2011,05,01,02,34,5.70
2011,05,01,02,35,5.70
2011,05,01,02,36,5.70
2011,05,01,02,37,5.70
2011,05,01,02,38,5.80
2011,05,01,02,39,5.80
2011,05,01,02,40,5.80
2011,05,01,02,41,5.80
2011,05,01,02,42,5.80
2011,05,01,02,43,5.80
2011,05,01,02,44,5.80
2011,05,01,02,45,5.80
2011,05,01,02,46,5.80
2011,05,01,02,47,5.70
2011,05,01,02,48,5.70
2011,05,01,02,49,5.70
2011,05,01,02,50,5.60
2011,05,01,02,51,5.60
2011,05,01,02,52,5.60
2011,05,01,02,53,5.50
2011,05,01,02,54,5.50
2011,05,01,02,55,5.40
2011,05,01,02,56,5.40
2011,05,01,02,57,5.40
2011,05,01,02,58,5.40
2011,05,01,02,59,5.40
2011,05,01,03,00,5.40
2011,05,01,03,01,5.40
2011,05,01,03,02,5.40
2011,05,01,03,03,5.40
2011,05,01,03,04,5.40
2011,05,01,03,05,5.30
2011,05,01,03,06,5.30
2011,05,01,03,07,5.30
2011,05,01,03,08,5.30
2011,05,01,03,09,5.20
2011,05,01,03,10,5.20
2011,05,01,03,11,5.20
2011,05,01,03,12,5.20
2011,05,01,03,13,5.10
2011,05,01,03,14,5.10
2011,05,01,03,15,5.10
2011,05,01,03,16,5.10
2011,05,01,03,17,5.00
2011,05,01,03,18,5.00
2011,05,01,03,19,4.90
2011,05,01,03,20,4.90
2011,05,01,03,21,4.90
2011,05,01,03,22,5.00
2011,05,01,03,23,5.00
2011,05,01,03,24,5.00
2011,05,01,03,25,4.90
2011,05,01,03,26,4.90
2011,05,01,03,27,4.90
2011,05,01,03,28,4.90
2011,05,01,03,29,4.80
2011,05,01,03,30,4.80
2011,05,01,03,31,4.80
2011,05,01,03,32,4.80
2011,05,01,03,33,4.80
2011,05,01,03,34,4.80
2011,05,01,03,35,4.80
2011,05,01,03,36,4.80
2011,05,01,03,37,4.70
2011,05,01,03,38,4.70
2011,05,01,03,39,4.70
2011,05,01,03,40,4.60
2011,05,01,03,41,4.60
2011,05,01,03,42,4.60
2011,05,01,03,43,4.60
2011,05,01,03,44,4.50
2011,05,01,03,45,4.50
2011,05,01,03,46,4.50
2011,05,01,03,47,4.40
2011,05,01,03,48,4.40
2011,05,01,03,49,4.40
2011,05,01,03,50,4.40
2011,05,01,03,51,4.40
2011,05,01,03,52,4.40
2011,05,01,03,53,4.30
2011,05,01,03,54,4.30
2011,05,01,03,55,4.30
2011,05,01,03,56,4.30
2011,05,01,03,57,4.30
2011,05,01,03,58,4.30
2011,05,01,03,59,4.40
2011,05,01,04,00,4.40
2011,05,01,04,01,4.40
2011,05,01,04,02,4.40
2011,05,01,04,03,4.40
2011,05,01,04,04,4.40
2011,05,01,04,05,4.40
2011,05,01,04,06,4.40
2011,05,01,04,07,4.40
2011,05,01,04,08,4.40
2011,05,01,04,09,4.30
2011,05,01,04,10,4.30
2011,05,01,04,11,4.30
2011,05,01,04,12,4.30
2011,05,01,04,13,4.30
2011,05,01,04,14,4.30
2011,05,01,04,15,4.30
2011,05,01,04,16,4.30
2011,05,01,04,17,4.30
2011,05,01,04,18,4.30
2011,05,01,04,19,4.20
2011,05,01,04,20,4.20
2011,05,01,04,21,4.20
2011,05,01,04,22,4.20
2011,05,01,04,23,4.20
2011,05,01,04,24,4.20
2011,05,01,04,25,4.20
2011,05,01,04,26,4.20
2011,05,01,04,27,4.20
2011,05,01,04,28,4.20
2011,05,01,04,29,4.20
2011,05,01,04,30,4.10
2011,05,01,04,31,4.10
2011,05,01,04,32,4.10
2011,05,01,04,33,4.10
2011,05,01,04,34,4.10
2011,05,01,04,35,4.10
2011,05,01,04,36,4.10
2011,05,01,04,37,4.10
2011,05,01,04,38,4.10
2011,05,01,04,39,4.10
2011,05,01,04,40,4.10
2011,05,01,04,41,4.10
2011,05,01,04,42,4.10
2011,05,01,04,43,4.10
2011,05,01,04,44,4.10
2011,05,01,04,45,4.10
2011,05,01,04,46,4.10
2011,05,01,04,47,4.10
2011,05,01,04,48,4.10
2011,05,01,04,49,4.10
2011,05,01,04,50,4.10
2011,05,01,04,51,4.10
2011,05,01,04,52,4.10
2011,05,01,04,53,4.10
2011,05,01,10,49,9.70
2011,05,01,10,50,9.70
2011,05,01,10,51,9.70
2011,05,01,10,52,9.70
2011,05,01,10,53,9.60
2011,05,01,10,54,9.60
2011,05,01,10,55,9.60
2011,05,01,10,56,9.60
2011,05,01,10,57,9.60
2011,05,01,10,58,9.70
2011,05,01,10,59,9.70
2011,05,01,11,00,9.70
2011,05,01,11,01,9.70
2011,05,01,11,02,9.80
2011,05,01,11,03,9.90
2011,05,01,11,04,9.90
2011,05,01,11,05,10.00
2011,05,01,11,06,10.00
2011,05,01,11,07,9.90
2011,05,01,11,08,9.90
2011,05,01,11,09,9.90
2011,05,01,11,10,9.90
2011,05,01,11,11,10.00
2011,05,01,11,12,10.10
2011,05,01,11,13,10.10
2011,05,01,11,14,10.10
2011,05,01,11,15,10.10
2011,05,01,11,16,10.20
2011,05,01,11,17,10.20
2011,05,01,11,18,10.30
2011,05,01,11,19,10.30
2011,05,01,11,20,10.40
2011,05,01,11,21,10.40
2011,05,01,11,22,10.30
2011,05,01,11,23,10.30
2011,05,01,11,24,10.30
2011,05,01,11,25,10.30
2011,05,01,11,26,10.30
2011,05,01,11,27,10.30
2011,05,01,11,28,10.40
2011,05,01,11,29,10.40
2011,05,01,11,30,10.50
2011,05,01,11,31,10.60
2011,05,01,11,32,10.60
2011,05,01,11,33,10.60
2011,05,01,11,34,10.70
2011,05,01,11,35,10.70
2011,05,01,11,36,10.80
2011,05,01,11,37,10.90
2011,05,01,11,38,11.00
2011,05,01,11,39,11.00
2011,05,01,11,40,11.00
2011,05,01,11,41,10.90
2011,05,01,11,42,10.80
2011,05,01,11,43,10.70
2011,05,01,11,44,10.70
2011,05,01,11,45,10.60
2011,05,01,11,46,10.60
2011,05,01,11,47,10.60
2011,05,01,11,48,10.50
2011,05,01,11,49,10.50
2011,05,01,11,50,10.40
2011,05,01,11,51,10.40
2011,05,01,11,52,10.40
2011,05,01,11,53,10.40
2011,05,01,11,54,10.50
2011,05,01,11,55,10.50
2011,05,01,11,56,10.40
2011,05,01,11,57,10.30
2011,05,01,11,58,10.30
2011,05,01,11,59,10.30
2011,05,01,12,00,10.20
2011,05,01,12,01,10.30
2011,05,01,12,02,10.30
2011,05,01,12,03,10.30
2011,05,01,12,04,10.30
2011,05,01,12,05,10.30
2011,05,01,12,06,10.30
2011,05,01,12,07,10.40
2011,05,01,12,08,10.40
2011,05,01,12,09,10.30
2011,05,01,12,10,10.30
2011,05,01,12,11,10.30
2011,05,01,12,12,10.30
2011,05,01,12,13,10.20
2011,05,01,12,14,10.20
2011,05,01,12,15,10.30
2011,05,01,12,16,10.30
2011,05,01,12,17,10.30
2011,05,01,12,18,10.30
2011,05,01,12,19,10.30
2011,05,01,12,20,10.20
2011,05,01,12,21,10.20
2011,05,01,12,22,10.20
2011,05,01,12,23,10.30
2011,05,01,12,24,10.30
2011,05,01,12,25,10.40
2011,05,01,12,26,10.40
2011,05,01,12,27,10.40
2011,05,01,12,28,10.40
2011,05,01,12,29,10.40
2011,05,01,12,30,10.50
2011,05,01,12,31,10.60
2011,05,01,12,32,10.60
2011,05,01,12,33,10.60
2011,05,01,12,34,10.50
2011,05,01,12,35,10.50
2011,05,01,12,36,10.60
2011,05,01,12,37,10.60
2011,05,01,12,38,10.70
2011,05,01,12,39,10.70
2011,05,01,12,40,10.80
2011,05,01,12,41,10.80
2011,05,01,12,42,10.80
2011,05,01,12,43,10.80
2011,05,01,12,44,10.80
2011,05,01,12,45,10.80
2011,05,01,12,46,10.80
2011,05,01,12,47,10.80
2011,05,01,12,48,10.80
2011,05,01,12,49,10.80
2011,05,01,12,50,10.80
2011,05,01,12,51,10.80
2011,05,01,12,52,10.90
2011,05,01,12,53,10.90
2011,05,01,12,54,10.90
2011,05,01,12,55,10.90
2011,05,01,12,56,10.90
2011,05,01,12,57,10.80
2011,05,01,12,58,10.80
2011,05,01,12,59,10.90
2011,05,01,13,00,10.90
2011,05,01,13,01,10.90
2011,05,01,13,02,10.90
2011,05,01,13,03,10.90
2011,05,01,13,04,11.00
2011,05,01,13,05,11.00
2011,05,01,13,06,11.00
2011,05,01,13,07,11.00
2011,05,01,13,08,11.10
2011,05,01,13,09,11.10
2011,05,01,13,10,11.00
2011,05,01,13,11,11.10
2011,05,01,13,12,11.10
2011,05,01,13,13,11.20
2011,05,01,13,14,11.20
2011,05,01,13,15,11.30
2011,05,01,13,16,11.40
2011,05,01,13,17,11.40
2011,05,01,13,18,11.40
2011,05,01,13,19,11.30
2011,05,01,13,20,11.30
2011,05,01,13,21,11.30
2011,05,01,13,22,11.40
2011,05,01,13,23,11.40
2011,05,01,13,24,11.40
2011,05,01,13,25,11.40
2011,05,01,13,26,11.30
2011,05,01,13,27,11.30
2011,05,01,13,28,11.30
2011,05,01,13,29,11.30
2011,05,01,13,30,11.40
2011,05,01,13,31,11.40
2011,05,01,13,32,11.50
2011,05,01,13,33,11.60
2011,05,01,13,34,11.80
2011,05,01,13,35,11.80
2011,05,01,13,36,11.80
2011,05,01,13,37,11.90
2011,05,01,13,38,11.90
2011,05,01,13,39,11.80
2011,05,01,13,40,11.80
2011,05,01,13,41,11.70
2011,05,01,13,42,11.70
2011,05,01,13,43,11.70
2011,05,01,13,44,11.80
2011,05,01,13,45,11.80
2011,05,01,13,46,11.80
2011,05,01,13,47,11.80
2011,05,01,13,48,11.70
2011,05,01,13,49,11.70
2011,05,01,13,50,11.80
2011,05,01,13,51,11.90
2011,05,01,13,52,12.00
2011,05,01,13,53,12.00
2011,05,01,13,54,11.90
2011,05,01,13,55,11.90
2011,05,01,13,56,12.00
2011,05,01,13,57,12.10
2011,05,01,13,58,12.00
2011,05,01,13,59,12.00
2011,05,01,14,00,11.90
2011,05,01,14,01,11.90
2011,05,01,14,02,11.90
2011,05,01,14,03,12.00
2011,05,01,14,04,11.90
2011,05,01,14,05,11.80
2011,05,01,14,06,11.70
2011,05,01,14,07,11.70
2011,05,01,14,08,11.80
2011,05,01,14,09,11.80
2011,05,01,14,10,11.90
2011,05,01,14,11,12.00
2011,05,01,14,12,12.00
2011,05,01,14,13,12.10
2011,05,01,14,14,12.10
2011,05,01,14,15,12.10
2011,05,01,14,16,12.00
2011,05,01,14,17,11.80
2011,05,01,14,18,11.80
2011,05,01,14,19,11.70
2011,05,01,14,20,11.70
2011,05,01,14,21,11.70
2011,05,01,14,22,11.70
2011,05,01,14,23,11.70
2011,05,01,14,24,11.80
2011,05,01,14,25,11.80
2011,05,01,14,26,11.80
2011,05,01,14,27,11.70
2011,05,01,14,28,11.80
2011,05,01,14,29,11.80
2011,05,01,14,30,11.80
2011,05,01,14,31,11.80
2011,05,01,14,32,11.70
2011,05,01,14,33,11.60
2011,05,01,14,34,11.70
2011,05,01,14,35,11.80
2011,05,01,14,36,11.90
2011,05,01,14,37,11.90
2011,05,01,14,38,12.00
2011,05,01,14,39,12.00
2011,05,01,14,40,12.00
2011,05,01,14,41,11.90
2011,05,01,14,42,11.90
2011,05,01,14,43,11.80
2011,05,01,14,44,11.80
2011,05,01,14,45,11.70
2011,05,01,14,46,11.70
2011,05,01,14,47,11.70
2011,05,01,14,48,11.70
2011,05,01,14,49,11.80
2011,05,01,14,50,11.80
2011,05,01,14,51,11.70
2011,05,01,14,52,11.60
2011,05,01,14,53,11.70
2011,05,01,14,54,11.70
2011,05,01,14,55,11.70
2011,05,01,14,56,11.80
2011,05,01,14,57,11.80
2011,05,01,14,58,11.90
2011,05,01,14,59,11.90
2011,05,01,15,00,11.90
2011,05,01,15,01,11.80
2011,05,01,15,02,11.70
2011,05,01,15,03,11.70
2011,05,01,15,04,11.70
2011,05,01,15,05,11.80
2011,05,01,15,06,11.80
2011,05,01,15,07,11.80
2011,05,01,15,08,11.80
2011,05,01,15,09,11.80
2011,05,01,15,10,11.80
2011,05,01,15,11,11.70
2011,05,01,15,12,11.70
2011,05,01,15,13,11.70
2011,05,01,15,14,11.80
2011,05,01,15,15,11.90
2011,05,01,15,16,11.90
2011,05,01,15,17,11.80
2011,05,01,15,18,11.70
2011,05,01,15,19,11.60
2011,05,01,15,20,11.70
2011,05,01,15,21,11.70
2011,05,01,15,22,11.60
2011,05,01,15,23,11.60
2011,05,01,15,24,11.60
2011,05,01,15,25,11.60
2011,05,01,15,26,11.50
2011,05,01,15,27,11.50
2011,05,01,15,28,11.40
2011,05,01,15,29,11.30
2011,05,01,15,30,11.30
2011,05,01,15,31,11.30
2011,05,01,15,32,11.30
2011,05,01,15,33,11.20
2011,05,01,15,34,11.30
2011,05,01,15,35,11.30
2011,05,01,15,36,11.50
2011,05,01,15,37,11.50
2011,05,01,15,38,11.60
2011,05,01,15,39,11.50
2011,05,01,15,40,11.50
2011,05,01,15,41,11.60
2011,05,01,15,42,11.60
2011,05,01,15,43,11.70
2011,05,01,15,44,11.80
2011,05,01,15,45,11.80
2011,05,01,15,46,11.70
2011,05,01,15,47,11.60
2011,05,01,15,48,11.60
2011,05,01,15,49,11.60
2011,05,01,15,50,11.70
2011,05,01,15,51,11.60
2011,05,01,15,52,11.60
2011,05,01,15,53,11.60
2011,05,01,15,54,11.60
2011,05,01,15,55,11.70
2011,05,01,15,56,11.80
2011,05,01,15,57,11.80
2011,05,01,15,58,11.90
2011,05,01,15,59,12.00
2011,05,01,16,00,12.00
2011,05,01,16,01,11.90
2011,05,01,16,02,11.90
2011,05,01,16,03,11.80
2011,05,01,16,04,11.90
2011,05,01,16,05,11.80
2011,05,01,16,06,11.80
2011,05,01,16,07,11.80
2011,05,01,16,08,11.80
2011,05,01,16,09,11.80
2011,05,01,16,10,11.80
2011,05,01,16,11,11.60
2011,05,01,16,12,11.60
2011,05,01,16,13,11.40
2011,05,01,16,14,11.30
2011,05,01,16,15,11.20
2011,05,01,16,16,11.10
2011,05,01,16,17,11.10
2011,05,01,16,18,11.00
2011,05,01,16,19,11.00
2011,05,01,16,20,10.90
2011,05,01,16,21,10.90
2011,05,01,16,22,10.90
2011,05,01,16,23,10.80
2011,05,01,16,24,10.80
2011,05,01,16,25,10.80
2011,05,01,16,26,10.80
2011,05,01,16,27,10.80
2011,05,01,16,28,10.80
2011,05,01,16,29,10.80
2011,05,01,16,30,10.80
2011,05,01,16,31,10.80
2011,05,01,16,32,10.90
2011,05,01,16,33,10.90
2011,05,01,16,34,10.80
2011,05,01,16,35,10.80
2011,05,01,16,36,10.80
2011,05,01,16,37,10.90
2011,05,01,16,38,10.90
2011,05,01,16,39,10.90
2011,05,01,16,40,10.90
2011,05,01,16,41,10.90
2011,05,01,16,42,10.90
2011,05,01,16,43,10.90
2011,05,01,16,44,10.90
2011,05,01,16,45,10.90
2011,05,01,16,46,10.90
2011,05,01,16,47,10.90
2011,05,01,16,48,10.80
2011,05,01,16,49,10.90
2011,05,01,16,50,11.00
2011,05,01,16,51,11.00
2011,05,01,16,52,11.10
2011,05,01,16,53,11.10
2011,05,01,16,54,11.10
2011,05,01,16,55,11.20
2011,05,01,16,56,11.30
2011,05,01,16,57,11.30
2011,05,01,16,58,11.40
2011,05,01,16,59,11.50
2011,05,01,17,00,11.50
2011,05,01,17,01,11.60
2011,05,01,17,02,11.60
2011,05,01,17,03,11.70
2011,05,01,17,04,11.70
2011,05,01,17,05,11.70
2011,05,01,17,06,11.80
2011,05,01,17,07,11.80
2011,05,01,17,08,11.80
2011,05,01,17,09,11.80
2011,05,01,17,10,11.90
2011,05,01,17,11,12.00
2011,05,01,17,12,12.20
2011,05,01,17,13,12.30
2011,05,01,17,14,12.40
2011,05,01,17,15,12.60
2011,05,01,17,16,12.70
2011,05,01,17,17,12.90
2011,05,01,17,18,13.00
2011,05,01,17,19,13.20
2011,05,01,17,20,13.20
2011,05,01,17,21,13.30
2011,05,01,17,22,13.30
2011,05,01,17,23,13.30
2011,05,01,17,24,13.30
2011,05,01,17,25,13.40
2011,05,01,17,26,13.40
2011,05,01,17,27,13.40
2011,05,01,17,28,13.40
2011,05,01,17,29,13.50
2011,05,01,17,30,13.50
2011,05,01,17,31,13.60
2011,05,01,17,32,13.60
2011,05,01,17,33,13.70
2011,05,01,17,34,13.70
2011,05,01,17,35,13.70
2011,05,01,17,36,13.70
2011,05,01,17,37,13.80
2011,05,01,17,38,13.80
2011,05,01,17,39,13.80
2011,05,01,17,40,13.80
2011,05,01,17,41,13.80
2011,05,01,17,42,13.80
2011,05,01,17,43,13.80
2011,05,01,17,44,13.80
2011,05,01,17,45,13.70
2011,05,01,17,46,13.60
2011,05,01,17,47,13.60
2011,05,01,17,48,13.50
2011,05,01,17,49,13.40
2011,05,01,17,50,13.40
2011,05,01,17,51,13.30
2011,05,01,17,52,13.30
2011,05,01,17,53,13.20
2011,05,01,17,54,13.20
2011,05,01,17,55,13.20
2011,05,01,17,56,13.20
2011,05,01,17,57,13.20
2011,05,01,17,58,13.20
2011,05,01,17,59,13.20
2011,05,01,18,00,13.30
2011,05,01,18,01,13.30
2011,05,01,18,02,13.40
2011,05,01,18,03,13.50
2011,05,01,18,04,13.60
2011,05,01,18,05,13.60
2011,05,01,18,06,13.70
2011,05,01,18,07,13.70
2011,05,01,18,08,13.80
2011,05,01,18,09,13.80
2011,05,01,18,10,13.80
2011,05,01,18,11,13.80
2011,05,01,18,12,13.80
2011,05,01,18,13,13.80
2011,05,01,18,14,13.90
2011,05,01,18,15,13.90
2011,05,01,18,16,13.90
2011,05,01,18,17,13.90
2011,05,01,18,18,13.90
2011,05,01,18,19,13.90
2011,05,01,18,20,13.90
2011,05,01,18,21,13.80
2011,05,01,18,22,13.80
2011,05,01,18,23,13.80
2011,05,01,18,24,13.80
2011,05,01,18,25,13.80
2011,05,01,18,26,13.80
2011,05,01,18,27,13.80
2011,05,01,18,28,13.80
2011,05,01,18,29,13.80
2011,05,01,18,30,13.80
2011,05,01,18,31,13.80
2011,05,01,18,32,13.80
2011,05,01,18,33,13.80
2011,05,01,18,34,13.80
2011,05,01,18,35,13.80
2011,05,01,18,36,13.80
2011,05,01,18,37,13.80
2011,05,01,18,38,13.80
2011,05,01,18,39,13.80
2011,05,01,18,40,13.80
2011,05,01,18,41,13.80
2011,05,01,18,42,13.80
2011,05,01,18,43,13.80
2011,05,01,18,44,13.80
2011,05,01,18,45,13.80
2011,05,01,18,46,13.80
2011,05,01,18,47,13.80
2011,05,01,18,48,13.70
2011,05,01,18,49,13.70
2011,05,01,18,50,13.70
2011,05,01,18,51,13.70
2011,05,01,18,52,13.60
2011,05,01,18,53,13.40
2011,05,01,18,54,13.30
2011,05,01,18,55,13.10
2011,05,01,18,56,13.00
2011,05,01,18,57,12.90
2011,05,01,18,58,12.80
2011,05,01,18,59,12.80
2011,05,01,19,00,12.70
2011,05,01,19,01,12.70
2011,05,01,19,02,12.60
2011,05,01,19,03,12.60
2011,05,01,19,04,12.60
2011,05,01,19,05,12.60
2011,05,01,19,06,12.60
2011,05,01,19,07,12.60
2011,05,01,19,08,12.50
2011,05,01,19,09,12.50
2011,05,01,19,10,12.50
2011,05,01,19,11,12.50
2011,05,01,19,12,12.50
2011,05,01,19,13,12.50
2011,05,01,19,14,12.40
2011,05,01,19,15,12.40
2011,05,01,19,16,12.30
2011,05,01,19,17,12.30
2011,05,01,19,18,12.30
2011,05,01,19,19,12.30
2011,05,01,19,20,12.30
2011,05,01,19,21,12.30
2011,05,01,19,22,12.20
2011,05,01,19,23,12.20
2011,05,01,19,24,12.20
2011,05,01,19,25,12.20
2011,05,01,19,26,12.10
2011,05,01,19,27,12.10
2011,05,01,19,28,12.00
2011,05,01,19,29,12.00
2011,05,01,19,30,11.90
2011,05,01,19,31,11.90
2011,05,01,19,32,11.80
2011,05,01,19,33,11.80
2011,05,01,19,34,11.80
2011,05,01,19,35,11.80
2011,05,01,19,36,11.80
2011,05,01,19,37,11.70
2011,05,01,19,38,11.70
2011,05,01,19,39,11.60
2011,05,01,19,40,11.60
2011,05,01,19,41,11.60
2011,05,01,19,42,11.60
2011,05,01,19,43,11.60
2011,05,01,19,44,11.60
2011,05,01,19,45,11.50
2011,05,01,19,46,11.50
2011,05,01,19,47,11.50
2011,05,01,19,48,11.50
2011,05,01,19,49,11.50
2011,05,01,19,50,11.50
2011,05,01,19,51,11.50
2011,05,01,19,52,11.50
2011,05,01,19,53,11.50
2011,05,01,19,54,11.50
2011,05,01,19,55,11.50
2011,05,01,19,56,11.50
2011,05,01,19,57,11.40
2011,05,01,19,58,11.40
2011,05,01,19,59,11.40
2011,05,01,20,00,11.40
2011,05,01,20,01,11.30
2011,05,01,20,02,11.30
2011,05,01,20,03,11.30
2011,05,01,20,04,11.20
2011,05,01,20,05,11.20
2011,05,01,20,06,11.10
2011,05,01,20,07,11.10
2011,05,01,20,08,11.10
2011,05,01,20,09,11.10
2011,05,01,20,10,11.00
2011,05,01,20,11,11.00
2011,05,01,20,12,11.00
2011,05,01,20,13,10.90
2011,05,01,20,14,10.90
2011,05,01,20,15,10.90
2011,05,01,20,16,10.90
2011,05,01,20,17,10.80
2011,05,01,20,18,10.80
2011,05,01,20,19,10.80
2011,05,01,20,20,10.80
2011,05,01,20,21,10.80
2011,05,01,20,22,10.70
2011,05,01,20,23,10.70
2011,05,01,20,24,10.70
2011,05,01,20,25,10.70
2011,05,01,20,26,10.70
2011,05,01,20,27,10.70
2011,05,01,20,28,10.70
2011,05,01,20,29,10.70
2011,05,01,20,30,10.60
2011,05,01,20,31,10.60
2011,05,01,20,32,10.70
2011,05,01,20,33,10.70
2011,05,01,20,34,10.70
2011,05,01,20,35,10.70
2011,05,01,20,36,10.60
2011,05,01,20,37,10.60
2011,05,01,20,38,10.60
2011,05,01,20,39,10.60
2011,05,01,20,40,10.60
2011,05,01,20,41,10.60
2011,05,01,20,42,10.60
2011,05,01,20,43,10.60
2011,05,01,20,44,10.60
2011,05,01,20,45,10.60
2011,05,01,20,46,10.50
2011,05,01,20,47,10.50
2011,05,01,20,48,10.50
2011,05,01,20,49,10.50
2011,05,01,20,50,10.40
2011,05,01,20,51,10.40
2011,05,01,20,52,10.40
2011,05,01,20,53,10.40
2011,05,01,20,54,10.40
2011,05,01,20,55,10.40
2011,05,01,20,56,10.40
2011,05,01,20,57,10.40
2011,05,01,20,58,10.40
2011,05,01,20,59,10.30
2011,05,01,21,00,10.30
2011,05,01,21,01,10.30
2011,05,01,21,02,10.30
2011,05,01,21,03,10.30
2011,05,01,21,04,10.30
2011,05,01,21,05,10.30
2011,05,01,21,06,10.30
2011,05,01,21,07,10.30
2011,05,01,21,08,10.30
2011,05,01,21,09,10.30
2011,05,01,21,10,10.30
2011,05,01,21,11,10.30
2011,05,01,21,12,10.30
2011,05,01,21,13,10.30
2011,05,01,21,14,10.30
2011,05,01,21,15,10.30
2011,05,01,21,16,10.20
2011,05,01,21,17,10.20
2011,05,01,21,18,10.20
2011,05,01,21,19,10.20
2011,05,01,21,20,10.20
2011,05,01,21,21,10.20
2011,05,01,21,22,10.20
2011,05,01,21,23,10.20
2011,05,01,21,24,10.20
2011,05,01,21,25,10.20
2011,05,01,21,26,10.20
2011,05,01,21,27,10.20
2011,05,01,21,28,10.30
2011,05,01,21,29,10.30
2011,05,01,21,30,10.30
2011,05,01,21,31,10.30
2011,05,01,21,32,10.30
2011,05,01,21,33,10.30
2011,05,01,21,34,10.30
2011,05,01,21,35,10.30
2011,05,01,21,36,10.30
2011,05,01,21,37,10.30
2011,05,01,21,38,10.30
2011,05,01,21,39,10.30
2011,05,01,21,40,10.30
2011,05,01,21,41,10.30
2011,05,01,21,42,10.30
2011,05,01,21,43,10.20
2011,05,01,21,44,10.20
2011,05,01,21,45,10.20
2011,05,01,21,46,10.20
2011,05,01,21,47,10.20
2011,05,01,21,48,10.20
2011,05,01,21,49,10.20
2011,05,01,21,50,10.10
2011,05,01,21,51,10.10
2011,05,01,21,52,10.10
2011,05,01,21,53,10.10
2011,05,01,21,54,10.10
2011,05,01,21,55,10.10
2011,05,01,21,56,10.10
2011,05,01,21,57,10.10
2011,05,01,21,58,10.10
2011,05,01,21,59,10.10
2011,05,01,22,00,10.10
2011,05,01,22,01,10.10
2011,05,01,22,02,10.10
2011,05,01,22,03,10.10
2011,05,01,22,04,10.10
2011,05,01,22,05,10.10
2011,05,01,22,06,10.10
2011,05,01,22,07,10.10
2011,05,01,22,08,10.10
2011,05,01,22,09,10.10
2011,05,01,22,10,10.10
2011,05,01,22,11,10.10
2011,05,01,22,12,10.10
2011,05,01,22,13,10.10
2011,05,01,22,14,10.10
2011,05,01,22,15,10.10
2011,05,01,22,16,10.10
2011,05,01,22,17,10.10
2011,05,01,22,18,10.10
2011,05,01,22,19,10.00
2011,05,01,22,20,10.00
2011,05,01,22,21,10.00
2011,05,01,22,22,10.00
2011,05,01,22,23,9.90
2011,05,01,22,24,9.90
2011,05,01,22,25,9.90
2011,05,01,22,26,9.90
2011,05,01,22,27,9.90
2011,05,01,22,28,9.80
2011,05,01,22,29,9.80
2011,05,01,22,30,9.80
2011,05,01,22,31,9.80
2011,05,01,22,32,9.80
2011,05,01,22,33,9.80
2011,05,01,22,34,9.80
2011,05,01,22,35,9.80
2011,05,01,22,36,9.80
2011,05,01,22,37,9.80
2011,05,01,22,38,9.80
2011,05,01,22,39,9.80
2011,05,01,22,40,9.80
2011,05,01,22,41,9.80
2011,05,01,22,42,9.80
2011,05,01,22,43,9.90
2011,05,01,22,44,9.90
2011,05,01,22,45,9.80
2011,05,01,22,46,9.90
2011,05,01,22,47,9.90
2011,05,01,22,48,9.90
2011,05,01,22,49,9.90
2011,05,01,22,50,9.90
2011,05,01,22,51,9.90
2011,05,01,22,52,9.90
2011,05,01,22,53,9.90
2011,05,01,22,54,9.90
2011,05,01,22,55,9.90
2011,05,01,22,56,9.90
2011,05,01,22,57,9.90
2011,05,01,22,58,9.90
2011,05,01,22,59,9.90
2011,05,01,23,00,9.90
2011,05,01,23,01,9.90
2011,05,01,23,02,9.90
2011,05,01,23,03,9.90
2011,05,01,23,04,9.90
2011,05,01,23,05,9.80
2011,05,01,23,06,9.80
2011,05,01,23,07,9.80
2011,05,01,23,08,9.80
2011,05,01,23,09,9.80
2011,05,01,23,10,9.70
2011,05,01,23,11,9.70
2011,05,01,23,12,9.70
2011,05,01,23,13,9.70
2011,05,01,23,14,9.70
2011,05,01,23,15,9.60
2011,05,01,23,16,9.60
2011,05,01,23,17,9.60
2011,05,01,23,18,9.60
2011,05,01,23,19,9.70
2011,05,01,23,20,9.70
2011,05,01,23,21,9.70
2011,05,01,23,22,9.70
2011,05,01,23,23,9.70
2011,05,01,23,24,9.70
2011,05,01,23,25,9.70
2011,05,01,23,26,9.70
2011,05,01,23,27,9.70
2011,05,01,23,28,9.70
2011,05,01,23,29,9.70
2011,05,01,23,30,9.70
2011,05,01,23,31,9.70